Location: Evensen
(52.5775°N, 9.5258°E)
Time: 07:31:22
(UTC+00:00)

Cosmos 2219 Rocket - Pass Details

Date: 15 May 2026
Orbit: 826 x 846 km, 71.0° (Epoch: 6 June)

Event Time Altitude Azimuth Distance (km) Brightness Sun altitude
Rises 21:57:15 0° 325° (NW) 3,406 6.9 -16.3°
Reaches altitude 10° 21:59:50 10° 318° (NW) 2,470 5.7 -16.4°
Maximum altitude 22:05:02 39° 251° (WSW) 1,253 3.1 -16.6°
Enters shadow 22:08:12 21° 197° (SSW) 1,804 3.4 -16.8°
